Flag for Sweden Weather past 2 weeks in Norrköping, Sweden

Now
75 °F

Sunny.


Feels Like: 78 °F
Forecast: 60 / 74 °F
Wind: 16 mph from West

Location: Norrkoping Airport

Current Time: Jul 31, 2014 at 3:11:59 PM

Latest Report: Jul 31, 2014 at 2:20 PM


Visibility: 10 mi

Pressure: 29.71 "Hg

Humidity: 41%

Dew point: 50 °F

Location of NorrköpingLocation

Historic Weather in Norrköping — Graph

°F

Norrköping temperature yesterday

Maximum temperature yesterday: 77 °F (at 3:50 PM)
Minimum temperature yesterday: 63 °F (at 12:50 AM)
Average temperature yesterday: 69 °F

Past Weeks' High & Low Weather Summary

 TemperatureHumidityPressure
High88 °F (Jul 24, 1:50 PM)100% (Jul 18, 3:20 AM)30.30 "Hg (Jul 18, 3:20 AM)
Low52 °F (Jul 17, 4:50 AM)24% (Jul 24, 3:50 PM)29.68 "Hg (Jul 30, 4:50 PM)
Average70 °F69%30.04 "Hg
* Reported Jul 16 1:20 PM — Jul 31 1:50 PM, Norrköping, Weather by CustomWeather, © 2014

Note: Actual official high and low records may vary slightly from our data, if they occured in-between our weather recording intervals... More about our weather records

Advertising

Norrköping weather history for previous 24 hours

 ConditionsComfort  
Time TempWeatherWind HumidityBarometerVisibility
1:50 PM
Jul 31
73 °FScattered clouds.15 mph47%29.71 "HgN/A
1:20 PM75 °FScattered clouds.14 mph47%29.71 "HgN/A
12:50 PM73 °FScattered clouds.14 mph47%29.71 "HgN/A
12:20 PM73 °FScattered clouds.17 mph50%29.71 "HgN/A
11:50 AM73 °FPassing clouds.15 mph50%29.71 "HgN/A
11:20 AM73 °FPassing clouds.15 mph50%29.71 "HgN/A
10:50 AM72 °FPassing clouds.16 mph57%29.71 "HgN/A
10:20 AM72 °FPassing clouds.13 mph61%29.71 "HgN/A
9:50 AM70 °FPassing clouds.14 mph60%29.71 "HgN/A
9:20 AM70 °FPassing clouds.13 mph64%29.68 "HgN/A
8:50 AM68 °FPassing clouds.14 mph69%29.68 "HgN/A
8:20 AM66 °FPassing clouds.13 mph78%29.68 "HgN/A
7:50 AM66 °FSunny.14 mph78%29.68 "Hg10 mi
7:20 AM64 °FSunny.12 mph83%29.68 "Hg10 mi
6:50 AM63 °FSunny.8 mph88%29.68 "Hg10 mi
6:20 AM61 °FSunny.8 mph88%29.68 "Hg10 mi
5:50 AM59 °FSunny.7 mph94%29.68 "Hg10 mi
5:20 AM59 °FCool.6 mph94%29.68 "HgN/A
4:50 AM59 °FCool.6 mph88%29.68 "HgN/A
4:20 AM61 °FCool.3 mph83%29.68 "HgN/A
3:50 AM63 °FPassing clouds.8 mph77%29.68 "HgN/A
3:20 AM64 °FPassing clouds.7 mph83%29.68 "HgN/A
2:50 AM64 °FOvercast.8 mph88%29.68 "HgN/A
2:20 AM64 °FMostly cloudy.3 mph94%29.68 "HgN/A
1:50 AM64 °FPassing clouds.5 mph94%29.68 "HgN/A
1:20 AM64 °FLight rain. Passing clouds.7 mph94%29.68 "HgN/A
12:50 AM66 °FLight rain. Passing clouds.5 mph88%29.68 "HgN/A
12:20 AM66 °FPassing clouds.5 mph83%29.68 "HgN/A
11:50 PM
Jul 30
66 °FPartly cloudy.3 mph88%29.68 "HgN/A
11:20 PM66 °FMostly cloudy.3 mph88%29.68 "HgN/A
10:50 PM68 °FPartly cloudy.3 mph83%29.68 "HgN/A
10:20 PM68 °FSunny.5 mph78%29.68 "Hg10 mi
9:50 PM68 °FSunny.5 mph78%29.68 "Hg10 mi
9:20 PM70 °FSunny.3 mph78%29.68 "Hg10 mi
8:50 PM70 °FPassing clouds.2 mph78%29.68 "HgN/A
8:20 PM72 °FPassing clouds.2 mph73%29.68 "HgN/A
7:50 PM72 °FSunny.3 mph69%29.68 "Hg10 mi
7:20 PM72 °FSunny.3 mph73%29.68 "Hg10 mi
6:50 PM72 °FSprinkles. Passing clouds.8 mph78%29.68 "HgN/A
6:20 PM72 °FSunny.6 mph73%29.68 "Hg10 mi
5:50 PM73 °FSunny.8 mph69%29.68 "Hg10 mi
5:20 PM75 °FScattered clouds.8 mph65%29.68 "HgN/A
4:50 PM75 °FScattered clouds.9 mph65%29.68 "HgN/A
4:20 PM75 °FScattered clouds.8 mph65%29.71 "HgN/A
3:50 PM77 °FPartly sunny.8 mph69%29.71 "HgN/A
3:20 PM75 °FSunny.8 mph69%29.71 "Hg10 mi
Weather by CustomWeather, © 2014

See weather overviewHow to use our weather pages